シャイン-シャルダハ彗星

61P/Shajn-Schaldach (2022)

English version
Home page
Updated on May 13, 2024

---------------------------------------------------------------------

・ プロフィール

・ 写真集

・ 軌道要素

Epoch 2024 Mar. 31.0 TT = JDT 2460400.5
T 2022 Oct. 23.71292 TT                                 Rudenko
q   2.1265791            (2000.0)            P               Q
n   0.13910146     Peri.  221.66021     +0.90799974     -0.41785025
a   3.6890533      Node   162.96315     +0.40671094     +0.86152200
e   0.4235434      Incl.    5.99911     +0.10061155     +0.28841118
P   7.09
>From 2681 observations 2000 Apr. 22-2024 Feb. 9, mean residual 1".1.
     Nongravitational parameters A1 = +0.61, A2 = -0.2677.

・ 星図

・ 光度変化

        m1 = 8.0 + 5 logΔ + 20.0 log r

---------------------------------------------------------------------

軌道要素はM.P.E.C. 2024-D33に掲載されたものです。
星図はステラナビゲータ Ver.10 (アストロアーツ) で作成したものです。
光度グラフはComet for Windowsで作成したものです。

---------------------------------------------------------------------

Copyright(C) Seiichi Yoshida (comet@aerith.net). All rights reserved.